Lid_Strength_Index
7 6 5 4 3 4 2 0 0 0 0 0 0 1 1 1 1 1 1 3 1 -1 -2 -1 -1 -2 -2 -2 -2 -1 -2 -1 -1 -1 -1 -1 -1 -0 -0 -0 0 0 1
7 6 5 4 4 3 3 1 0 0 0 0 0 1 1 1 1 1 1 1 2 -0 -1 -1 -1 -2 -2 -2 -2 -2 -2 -2 -1 -1 -1 -1 -1 -0 -0 -0 0 0 0
7 6 5 5 4 3 3 1 0 0 1 0 1 2 2 2 1 1 1 1 2 2 0 -1 -1 -1 -2 -2 -2 -2 -2 -2 -2 -1 -1 -1 -1 -1 -0 -0 -0 -0 -0
6 6 5 5 4 3 2 1 1 1 1 1 2 3 4 4 3 1 1 2 2 2 2 1 -1 -1 -1 -2 -2 -2 -2 -2 -2 -1 -1 -1 -1 -0 -1 -0 -1 -1 -1
7 7 6 5 4 3 2 1 1 2 2 2 3 3 4 3 2 2 2 3 4 4 5 5 4 3 -0 -2 -2 -2 -2 -2 -2 -2 -1 -1 -1 -0 -0 -1 -1 -1 -1
8 8 7 5 4 4 3 1 1 2 4 7 8 10 9 10 10 9 8 7 8 9 9 8 7 6 5 1 -1 -2 -2 -2 -2 -2 -1 -1 -1 -0 -1 -1 -0 -0 -1
8 7 7 6 4 4 4 2 1 2 5 5 7 9 12 13 14 13 12 12 12 12 12 12 12 10 9 5 1 -1 -2 -2 -2 -2 -2 -1 -1 -1 -1 -1 -1 -1 -0
5 5 5 5 5 5 4 3 1 2 4 4 6 8 11 11 13 14 14 13 14 14 14 14 14 14 13 11 7 0 -1 -2 -2 -2 -2 -2 -2 -1 -1 -1 -1 1 1
5 4 5 4 4 3 3 3 1 2 4 4 4 6 10 10 13 15 16 16 16 16 16 15 15 16 15 13 8 4 0 -1 -1 -1 -1 -1 -1 -1 -1 0 1 2 4
5 5 5 5 4 4 4 3 2 3 3 4 3 5 7 9 10 14 15 17 17 17 18 17 17 17 17 15 10 8 5 3 3 2 2 2 2 2 3 4 5 5 6
5 6 7 6 6 6 5 5 5 4 3 4 3 6 7 9 9 10 14 17 18 18 18 18 17 17 17 16 13 10 9 8 7 7 6 6 5 6 6 6 7 7 7
6 6 7 7 7 8 7 7 6 6 5 4 4 4 7 7 9 12 14 16 15 19 19 18 18 18 18 17 14 12 11 10 10 10 10 9 9 8 8 8 8 8 8
8 8 8 8 8 8 8 7 7 7 8 8 6 5 6 8 9 10 12 16 16 19 19 19 19 19 19 18 16 14 12 11 11 10 10 10 10 10 10 10 10 9 10
8 8 8 8 8 8 9 8 8 9 11 11 13 14 12 12 12 11 11 14 17 19 19 19 19 19 18 18 17 16 15 13 12 11 11 11 12 12 12 12 11 11 11
9 9 11 10 10 10 9 10 10 12 11 12 14 15 14 14 13 12 12 11 10 16 18 20 20 19 18 18 18 19 18 15 14 14 13 14 14 14 14 13 13 12 12
11 11 12 12 11 11 11 10 12 13 12 12 12 13 14 14 14 13 13 13 12 12 16 19 20 19 19 19 19 19 18 18 17 16 16 16 16 15 15 14 13 13 13
13 13 13 12 12 12 12 12 13 13 14 14 13 14 15 14 14 14 13 13 13 13 17 20 19 19 19 19 20 20 19 20 19 18 18 17 17 16 15 14 14 14 14
12 13 12 13 13 13 13 14 15 15 15 16 16 15 16 15 16 15 15 14 14 14 16 20 21 20 20 19 20 20 20 19 20 20 18 17 17 15 16 15 15 15 15
13 13 13 13 14 14 14 15 15 15 16 16 17 17 17 16 16 16 16 16 16 16 17 19 21 20 20 21 22 20 21 20 21 20 18 18 17 17 17 16 16 16 16
13 13 14 15 15 15 15 15 15 16 16 16 16 17 17 17 16 17 17 17 17 18 18 19 20 20 21 21 21 22 22 22 22 21 20 19 19 19 18 17 17 17 17
13 13 14 14 14 15 16 17 17 17 17 17 15 15 15 15 15 15 17 17 17 18 18 19 21 22 22 22 22 23 23 23 23 23 23 22 22 23 23 21 20 18 17
14 14 14 15 14 14 14 15 16 17 17 18 18 18 18 16 14 13 14 15 16 18 20 20 21 22 23 23 23 23 24 25 26 23 24 23 23 24 23 22 18 16 15
16 16 15 15 15 15 14 14 15 16 17 17 18 18 18 18 18 17 15 15 15 16 17 20 21 22 23 22 22 23 23 24 25 23 24 25 23 23 22 21 18 16 15
16 17 17 16 15 14 14 14 15 17 17 18 18 18 19 19 19 19 19 20 20 20 20 20 22 22 22 21 22 22 23 25 25 24 23 27 24 24 22 22 18 17 16
18 17 16 17 17 16 14 15 16 17 18 18 18 18 18 19 17 17 20 20 21 20 17 17 17 17 18 18 20 24 28 28 28 25 23 25 25 25 24 23 22 19 17
18 18 18 18 17 17 15 16 17 18 19 19 19 18 16 18 17 17 21 22 23 23 23 24 23 21 20 20 18 22 24 30 29 29 25 27 27 27 28 25 25 24 23